Terug naar catalogus

STARLINK-2675

ActiefCommunicatieVLEO
NORAD 48470·PAYLOAD·🇺🇸 United States

Gelanceerd May 9, 2021 vanaf Cape Canaveral Space Force Station

Loading…

Volgende Passages (komende 24 uur)

TLE

VersSource: CelesTrak SupGP

Epoch: Sep 15, 2026, 01:24 UTC

1 48470C 21040AU  26258.05881944 -.00022565  00000+0 -72537-3 0  2588
2 48470  53.1602  29.7612 0001049  91.0542 340.6537 15.31725797    10

Volg STARLINK-2675 in realtime met AllMySat

Download on the App Store